Regional Weather Roundup
Issued by NWS

Current Version | Previous Version | Text Only | Print | Product List | Glossary On
Versions: 1 2 3 4 5 6 7 8 9 10 11 12 13 14 15 16 17 18 19 20 21 22 23 24 25 26 27 28 29 30 31 32 33 34 35 36 37 38 39 40 41 42 43 44 45 46 47 48 49 50
000
ASCA42 TJSJ 291210
RWRPR
PUERTO RICO/U.S. VIRGIN ISLANDS HOURLY WEATHER ROUNDUP
NATIONAL WEATHER SERVICE SAN JUAN PR
800 AM AST SUN MAR 29 2015

PRZ001-004-291300-
PUERTO RICO

CITY           SKY/WX    TMP DP  RH WIND       PRES   REMARKS
SAN JUAN LMM   MOSUNNY   79  70  73 VRB5      30.11R
PONCE          MOSUNNY   75  68  78 E6        30.02S
AGUADILLA      SUNNY     73  64  73 CALM      30.12R
CEIBA          SUNNY     79  70  73 E13       30.13R
$$

PRZ006-007-291300-
U.S. VIRGIN ISLANDS

CITY           SKY/WX    TMP DP  RH WIND       PRES   REMARKS
CHRISTIANSTED  MOSUNNY   81  68  65 E14       30.12
$$

HOURLY WEATHER ROUNDUP FOR THE NEWS MEDIA

CITY           SKY/WX    TMP DP  RH WIND       PRES   REMARKS
ORLANDO        CLEAR     51  41  68 NW5       30.31R
NEW YORK       PTSUNNY   29   4  34 NW14      30.26R WCI  18
NEWARK         MOSUNNY   26   5  40 NW8       30.27R WCI  18
CHICAGO        MOCLDY    31  15  52 S16       30.13S WCI  20
HARTFORD       CLOUDY    25  17  72 NW6       30.16R WCI  18
BOSTON         MOSUNNY   27   7  42 NW12      30.18R WCI  17
DALLAS         CLEAR     59  46  63 SE13G21   30.03R
PHILADELPHIA   MOSUNNY   28   6  39 NW13      30.31R WCI  17
LOS ANGELES    FOG       56  56 100 W7        30.04S VSB 1/4
WASHINGTON DC  SUNNY     24   8  50 NW5       30.38R WCI  18


USA.gov is the U.S. government's official web portal to all federal, state and local government web resources and services.